Location: Unnamed
(48.6007°N, 2.4808°E)
Time: 18:28:30
(UTC+02:00)

DX 1 - Pass Details

Date: 07 April 2023
Orbit: 615 x 625 km, 98.4° (Epoch: 04 June)

Event Time Altitude Azimuth Distance (km) Brightness Sun altitude
Rises 23:37:00 0° 22° (NNE) 2,899 ? -27.0°
Reaches altitude 10° 23:39:23 10° 32° (NNE) 1,989 ? -27.3°
Enters shadow 23:40:27 16° 40° (NE) 1,619 ? -27.4°
